Location: Croisilles
(50.1998°N, 2.8793°E)
Time: 12:52:28
(UTC+00:00)

Okean-O - Pass Details

Date: 21 January 2021
Orbit: 638 x 641 km, 98.2° (Epoch: 27 February)

Event Time Altitude Azimuth Distance (km) Brightness Sun altitude
Rises 18:30:48 0° 170° (S) 2,935 6.0 -19.9°
Reaches altitude 10° 18:33:00 10° 173° (S) 2,031 5.2 -20.2°
Maximum altitude 18:37:25 70° 257° (WSW) 687 2.9 -20.9°
Drops below altitude 10° 18:41:52 10° 342° (NNW) 2,047 5.4 -21.6°
Sets 18:44:05 0° 344° (NNW) 2,961 6.2 -22.0°
